| time (UTC) | temp F | wind direction | speed knots | gust knots | rain 1hr in | rain 24hr in | rain mn in | humidity % | barometer mb |
| 20260505012250 | 46 | 255 | 0.0 | 2.6 | 0.00 | 0.00 | 0.00 | 83 | 1008.3 |
| 20260505011746 | 46 | 255 | 0.9 | 2.6 | 0.00 | 0.00 | 0.00 | 82 | 1008.1 |
| 20260505011245 | 46 | 242 | 0.9 | 2.6 | 0.00 | 0.00 | 0.00 | 82 | 1008.0 |
| 20260505010746 | 46 | 242 | 0.0 | 2.6 | 0.00 | 0.00 | 0.00 | 81 | 1007.9 |
| 20260505010519 | 47 | 238 | 0.0 | 3.5 | 0.00 | 0.00 | 0.00 | 80 | 1007.9 |
| 20260505005746 | 47 | 238 | 0.0 | 3.5 | 0.00 | 0.00 | 0.00 | 80 | 1007.9 |
| 20260505005244 | 47 | 237 | 0.9 | 7.8 | 0.00 | 0.00 | 0.00 | 79 | 1007.7 |
| 20260505004746 | 47 | 238 | 1.7 | 7.8 | 0.00 | 0.00 | 0.00 | 80 | 1007.7 |
| 20260505004243 | 47 | 257 | 2.6 | 7.8 | 0.00 | 0.00 | 0.00 | 80 | 1007.6 |
| 20260505003742 | 47 | 250 | 2.6 | 7.8 | 0.00 | 0.00 | 0.00 | 80 | 1007.6 |
| 20260505003245 | 47 | 250 | 2.6 | 7.0 | 0.00 | 0.00 | 0.00 | 80 | 1007.5 |
| 20260505002741 | 47 | 200 | 3.5 | 7.0 | 0.00 | 0.00 | 0.00 | 80 | 1007.5 |
| 20260505002515 | 47 | 234 | 3.5 | 7.0 | 0.00 | 0.00 | 0.00 | 80 | 1007.5 |
| 20260505002012 | 47 | 227 | 3.5 | 7.0 | 0.00 | 0.00 | 0.00 | 80 | 1007.4 |
| 20260505001240 | 47 | 254 | 3.5 | 7.0 | 0.00 | 0.00 | 0.00 | 80 | 1007.3 |
| 20260505000741 | 47 | 224 | 2.6 | 7.0 | 0.00 | 0.00 | 0.00 | 81 | 1007.3 |
| 20260505000243 | 47 | 223 | 2.6 | 7.8 | 0.00 | 0.00 | 0.00 | 81 | 1007.2 |
| 20260504235738 | 47 | 211 | 4.3 | 7.8 | 0.00 | 0.00 | 0.00 | 81 | 1007.1 |
| 20260504235240 | 47 | 203 | 4.3 | 7.8 | 0.00 | 0.00 | 0.00 | 82 | 1007.1 |
| 20260504234739 | 46 | 193 | 3.5 | 7.8 | 0.00 | 0.00 | 0.00 | 83 | 1007.0 |
| 20260504234240 | 46 | 188 | 2.6 | 5.2 | 0.00 | 0.00 | 0.00 | 83 | 1007.0 |
| 20260504233738 | 46 | 200 | 1.7 | 3.5 | 0.00 | 0.00 | 0.00 | 82 | 1006.9 |
| 20260504232739 | 47 | 175 | 0.9 | 4.3 | 0.00 | 0.00 | 0.00 | 80 | 1006.5 |
| 20260504232240 | 47 | 165 | 0.9 | 3.5 | 0.00 | 0.00 | 0.00 | 79 | 1006.6 |
| 20260504231740 | 48 | 186 | 1.7 | 8.7 | 0.00 | 0.00 | 0.00 | 77 | 1006.5 |
| 20260504231241 | 49 | 202 | 1.7 | 8.7 | 0.00 | 0.00 | 0.00 | 75 | 1006.5 |
| 20260504230739 | 50 | 186 | 1.7 | 9.6 | 0.00 | 0.00 | 0.00 | 74 | 1006.4 |
| 20260504230239 | 52 | 174 | 2.6 | 9.6 | 0.00 | 0.00 | 0.00 | 72 | 1006.3 |
| 20260504225738 | 53 | 214 | 2.6 | 5.2 | 0.00 | 0.00 | 0.00 | 71 | 1006.1 |
| 20260504224738 | 53 | 210 | 2.6 | 5.2 | 0.00 | 0.00 | 0.00 | 71 | 1006.1 |
| 20260504224240 | 53 | 213 | 2.6 | 5.2 | 0.00 | 0.00 | 0.00 | 71 | 1006.1 |
| 20260504223740 | 53 | 199 | 2.6 | 7.0 | 0.00 | 0.00 | 0.00 | 71 | 1006.0 |
| 20260504223239 | 53 | 223 | 1.7 | 7.0 | 0.00 | 0.00 | 0.00 | 70 | 1006.1 |
| 20260504222741 | 54 | 230 | 2.6 | 7.0 | 0.00 | 0.00 | 0.00 | 68 | 1006.1 |
| 20260504222509 | 54 | 215 | 3.5 | 7.0 | 0.00 | 0.00 | 0.00 | 66 | 1006.0 |
| 20260504221739 | 55 | 225 | 2.6 | 7.0 | 0.00 | 0.00 | 0.00 | 65 | 1006.0 |
| 20260504221240 | 55 | 239 | 2.6 | 7.0 | 0.00 | 0.00 | 0.00 | 65 | 1006.0 |
| 20260504220739 | 55 | 248 | 3.5 | 7.8 | 0.00 | 0.00 | 0.00 | 64 | 1005.8 |
| 20260504220510 | 55 | 191 | 2.6 | 7.8 | 0.00 | 0.00 | 0.00 | 65 | 1005.8 |
| 20260504220010 | 56 | 206 | 3.5 | 9.6 | 0.00 | 0.00 | 0.00 | 64 | 1005.7 |
| 20260504215240 | 56 | 249 | 3.5 | 9.6 | 0.00 | 0.00 | 0.00 | 64 | 1005.7 |
| 20260504214740 | 56 | 244 | 4.3 | 9.6 | 0.00 | 0.00 | 0.00 | 63 | 1005.6 |
| 20260504214238 | 56 | 245 | 5.2 | 9.6 | 0.00 | 0.00 | 0.00 | 63 | 1005.6 |
| 20260504214012 | 56 | 269 | 5.2 | 11.3 | 0.00 | 0.00 | 0.00 | 63 | 1005.7 |
| 20260504213509 | 56 | 270 | 6.1 | 11.3 | 0.00 | 0.00 | 0.00 | 63 | 1005.7 |
| 20260504212739 | 56 | 250 | 6.1 | 11.3 | 0.00 | 0.00 | 0.00 | 63 | 1005.8 |
| 20260504212239 | 56 | 215 | 5.2 | 11.3 | 0.00 | 0.00 | 0.00 | 62 | 1005.7 |
| 20260504211739 | 56 | 228 | 5.2 | 10.4 | 0.00 | 0.00 | 0.00 | 62 | 1005.8 |
| 20260504211510 | 56 | 252 | 5.2 | 9.6 | 0.00 | 0.00 | 0.00 | 62 | 1005.7 |
| 20260504210740 | 56 | 207 | 5.2 | 9.6 | 0.00 | 0.00 | 0.00 | 62 | 1005.6 |
| 20260504210239 | 56 | 263 | 5.2 | 13.9 | 0.00 | 0.00 | 0.00 | 63 | 1005.8 |
| 20260504205738 | 56 | 259 | 6.1 | 13.9 | 0.00 | 0.00 | 0.00 | 61 | 1005.7 |
| 20260504205240 | 56 | 268 | 7.0 | 13.9 | 0.00 | 0.00 | 0.00 | 61 | 1005.6 |
| 20260504204739 | 56 | 247 | 7.0 | 13.9 | 0.00 | 0.00 | 0.00 | 60 | 1005.5 |
| 20260504204239 | 56 | 271 | 7.0 | 14.8 | 0.00 | 0.00 | 0.00 | 60 | 1005.5 |
| 20260504203737 | 56 | 209 | 7.0 | 14.8 | 0.00 | 0.00 | 0.00 | 59 | 1005.5 |
| 20260504203236 | 56 | 275 | 6.1 | 12.2 | 0.00 | 0.01 | 0.00 | 59 | 1005.5 |
| 20260504203008 | 57 | 293 | 5.2 | 12.2 | 0.00 | 0.01 | 0.00 | 59 | 1005.4 |
| 20260504202234 | 57 | 235 | 4.3 | 12.2 | 0.00 | 0.01 | 0.00 | 61 | 1005.4 |
| 20260504201736 | 57 | 225 | 5.2 | 12.2 | 0.00 | 0.01 | 0.00 | 61 | 1005.4 |
| 20260504201236 | 56 | 234 | 5.2 | 12.2 | 0.00 | 0.01 | 0.00 | 60 | 1005.5 |
| 20260504200734 | 56 | 267 | 6.1 | 11.3 | 0.00 | 0.02 | 0.00 | 62 | 1005.4 |
| 20260504200236 | 55 | 261 | 6.1 | 11.3 | 0.00 | 0.02 | 0.00 | 63 | 1005.5 |
| 20260504200006 | 55 | 234 | 5.2 | 10.4 | 0.00 | 0.02 | 0.00 | 63 | 1005.5 |
| 20260504195234 | 55 | 251 | 5.2 | 11.3 | 0.00 | 0.02 | 0.00 | 66 | 1005.5 |
| 20260504194737 | 55 | 206 | 5.2 | 11.3 | 0.00 | 0.02 | 0.00 | 66 | 1005.5 |
| 20260504194234 | 55 | 252 | 4.3 | 8.7 | 0.00 | 0.02 | 0.00 | 65 | 1005.5 |
| 20260504193734 | 55 | 224 | 4.3 | 8.7 | 0.00 | 0.02 | 0.00 | 65 | 1005.5 |
| 20260504193233 | 54 | 270 | 3.5 | 7.8 | 0.00 | 0.02 | 0.00 | 68 | 1005.4 |
| 20260504192739 | 52 | 271 | 3.5 | 8.7 | 0.00 | 0.02 | 0.00 | 69 | 1005.7 |
| 20260504192734 | 53 | 243 | 4.3 | 8.7 | 0.00 | 0.02 | 0.00 | 68 | 1005.5 |
| 20260504192003 | 52 | 232 | 3.5 | 8.7 | 0.00 | 0.02 | 0.00 | 72 | 1005.9 |
| 20260504191505 | 51 | 254 | 4.3 | 8.7 | 0.00 | 0.02 | 0.00 | 72 | 1005.9 |
| 20260504190732 | 51 | 258 | 3.5 | 7.8 | 0.00 | 0.02 | 0.00 | 73 | 1006.0 |
| 20260504190233 | 50 | 267 | 4.3 | 7.8 | 0.00 | 0.02 | 0.00 | 73 | 1006.1 |
| 20260504185733 | 50 | 210 | 4.3 | 11.3 | 0.00 | 0.02 | 0.00 | 73 | 1006.1 |
| 20260504185505 | 50 | 242 | 5.2 | 11.3 | 0.00 | 0.03 | 0.00 | 72 | 1006.3 |
| 20260504184733 | 50 | 246 | 6.1 | 13.0 | 0.00 | 0.03 | 0.00 | 71 | 1006.2 |
| 20260504184230 | 50 | 280 | 7.0 | 13.0 | 0.00 | 0.03 | 0.00 | 71 | 1006.2 |
| 20260504183732 | 51 | 286 | 6.1 | 12.2 | 0.00 | 0.03 | 0.00 | 69 | 1006.2 |
| 20260504183231 | 51 | 249 | 6.1 | 12.2 | 0.00 | 0.03 | 0.00 | 69 | 1006.1 |
| 20260504182730 | 51 | 244 | 7.0 | 13.0 | 0.00 | 0.04 | 0.00 | 67 | 1006.1 |
| 20260504182231 | 51 | 249 | 7.0 | 13.0 | 0.00 | 0.04 | 0.00 | 67 | 1006.0 |
| 20260504181730 | 51 | 251 | 6.1 | 13.0 | 0.00 | 0.05 | 0.00 | 68 | 1006.0 |
| 20260504181501 | 51 | 248 | 6.1 | 13.0 | 0.00 | 0.05 | 0.00 | 69 | 1006.0 |
| 20260504180730 | 51 | 271 | 5.2 | 11.3 | 0.00 | 0.06 | 0.00 | 69 | 1005.9 |
| 20260504180231 | 51 | 240 | 4.3 | 11.3 | 0.00 | 0.07 | 0.00 | 69 | 1005.8 |
| 20260504175730 | 51 | 218 | 4.3 | 13.9 | 0.00 | 0.07 | 0.00 | 70 | 1005.7 |
| 20260504175228 | 51 | 245 | 5.2 | 13.9 | 0.00 | 0.08 | 0.00 | 70 | 1005.8 |
| 20260504174728 | 51 | 276 | 6.1 | 13.9 | 0.00 | 0.09 | 0.00 | 69 | 1005.9 |
| 20260504174229 | 52 | 253 | 6.1 | 13.9 | 0.00 | 0.10 | 0.00 | 68 | 1005.8 |
| 20260504173728 | 52 | 240 | 6.1 | 12.2 | 0.00 | 0.11 | 0.00 | 66 | 1005.9 |
| 20260504173459 | 53 | 244 | 5.2 | 12.2 | 0.00 | 0.12 | 0.00 | 67 | 1005.8 |
| 20260504172733 | 53 | 194 | 6.1 | 16.5 | 0.00 | 0.13 | 0.00 | 66 | 1005.7 |
| 20260504172729 | 53 | 203 | 6.1 | 12.2 | 0.00 | 0.13 | 0.00 | 68 | 1005.7 |
| 20260504171728 | 54 | 223 | 7.0 | 16.5 | 0.00 | 0.13 | 0.00 | 65 | 1005.7 |
| 20260504171226 | 53 | 230 | 7.0 | 17.4 | 0.00 | 0.14 | 0.00 | 68 | 1005.7 |
| 20260504170727 | 53 | 174 | 7.8 | 17.4 | 0.00 | 0.15 | 0.00 | 67 | 1005.5 |
| 20260504170227 | 53 | 248 | 7.0 | 14.8 | 0.00 | 0.15 | 0.00 | 69 | 1005.5 |
| 20260504160224 | 53 | 240 | 6.1 | 16.5 | 0.00 | 0.22 | 0.00 | 63 | 1005.8 |
| 20260504150724 | 52 | 222 | 7.0 | 11.3 | 0.00 | 0.30 | 0.00 | 66 | 1006.7 |
| 20260504150453 | 52 | 222 | 7.8 | 12.2 | 0.00 | 0.31 | 0.00 | 65 | 1006.9 |
| 20260504140721 | 50 | 246 | 7.8 | 14.8 | 0.00 | 0.40 | 0.00 | 65 | 1007.4 |
| 20260504140220 | 50 | 231 | 6.1 | 13.0 | 0.00 | 0.40 | 0.00 | 66 | 1007.3 |
| 20260504130717 | 47 | 284 | 3.5 | 7.8 | 0.00 | 0.47 | 0.00 | 68 | 1007.5 |
| 20260504130216 | 47 | 218 | 3.5 | 9.6 | 0.00 | 0.48 | 0.00 | 69 | 1007.4 |
| 20260504120217 | 45 | 267 | 4.3 | 12.2 | 0.00 | 0.54 | 0.00 | 72 | 1007.8 |
| 20260504110715 | 42 | 256 | 2.6 | 7.0 | 0.00 | 0.65 | 0.00 | 81 | 1007.7 |
| 20260504110217 | 42 | 240 | 2.6 | 6.1 | 0.00 | 0.65 | 0.00 | 82 | 1007.7 |
| 20260504100445 | 37 | 245 | 1.7 | 3.5 | 0.00 | 0.76 | 0.00 | 87 | 1007.1 |
| 20260504081708 | 37 | 285 | 1.7 | 5.2 | 0.00 | 0.87 | 0.00 | 86 | 1006.5 |
| 20260504081701 | 37 | 259 | 1.7 | 6.1 | 0.00 | 0.86 | 0.00 | 86 | 1006.6 |
| 20260504080702 | 37 | 250 | 2.6 | 5.2 | 0.00 | 0.87 | 0.00 | 85 | 1006.5 |
| 20260504080202 | 37 | 251 | 1.7 | 7.0 | 0.00 | 0.88 | 0.00 | 85 | 1006.5 |
| 20260504070159 | 37 | 279 | 2.6 | 7.0 | 0.00 | 0.95 | 0.00 | 84 | 1006.1 |
| 20260504060155 | 36 | 242 | 1.7 | 7.0 | 0.00 | 1.02 | 0.00 | 85 | 1005.5 |
| 20260504050650 | 38 | 283 | 4.3 | 9.6 | 0.00 | 1.05 | 0.00 | 84 | 1005.2 |
| 20260504050150 | 38 | 264 | 4.3 | 10.4 | 0.00 | 1.05 | 0.00 | 84 | 1005.2 |
| 20260504045651 | 38 | 286 | 5.2 | 10.4 | 0.00 | 1.05 | 0.00 | 84 | 1005.2 |
| 20260504045421 | 38 | 286 | 4.3 | 9.6 | 0.00 | 1.05 | 0.00 | 84 | 1005.2 |
| 20260504044651 | 38 | 250 | 3.5 | 8.7 | 0.00 | 1.05 | 0.00 | 84 | 1005.1 |
| 20260504044151 | 38 | 281 | 3.5 | 8.7 | 0.00 | 1.05 | 0.00 | 84 | 1005.1 |
| 20260504043650 | 38 | 278 | 3.5 | 8.7 | 0.00 | 1.05 | 0.00 | 83 | 1005.1 |
| 20260504043150 | 38 | 286 | 4.3 | 8.7 | 0.00 | 1.06 | 0.00 | 83 | 1005.0 |
| 20260504042649 | 38 | 254 | 4.3 | 8.7 | 0.00 | 1.06 | 0.00 | 83 | 1005.0 |
| 20260504042149 | 38 | 270 | 3.5 | 9.6 | 0.00 | 1.06 | 0.00 | 83 | 1004.9 |
| 20260504041649 | 38 | 277 | 3.5 | 9.6 | 0.00 | 1.06 | 0.00 | 83 | 1004.9 |
| 20260504041148 | 38 | 272 | 4.3 | 9.6 | 0.00 | 1.06 | 0.00 | 83 | 1004.9 |
| 20260504040650 | 38 | 275 | 3.5 | 9.6 | 0.00 | 1.06 | 0.00 | 82 | 1004.8 |
| 20260504040150 | 38 | 258 | 3.5 | 8.7 | 0.00 | 1.06 | 0.00 | 82 | 1004.8 |
| 20260504035646 | 38 | 271 | 4.3 | 8.7 | 0.00 | 1.06 | 1.06 | 82 | 1004.7 |
| 20260504035148 | 38 | 268 | 3.5 | 8.7 | 0.00 | 1.06 | 1.06 | 82 | 1004.7 |
| 20260504034648 | 38 | 271 | 3.5 | 8.7 | 0.00 | 1.06 | 1.06 | 82 | 1004.6 |
| 20260504034147 | 38 | 294 | 3.5 | 8.7 | 0.00 | 1.06 | 1.06 | 82 | 1004.6 |
| 20260504033648 | 38 | 279 | 3.5 | 8.7 | 0.00 | 1.06 | 1.06 | 83 | 1004.6 |
| 20260504033417 | 38 | 277 | 3.5 | 8.7 | 0.00 | 1.06 | 1.06 | 83 | 1004.6 |
| 20260504032918 | 39 | 274 | 3.5 | 8.7 | 0.00 | 1.06 | 1.06 | 83 | 1004.6 |
| 20260504032147 | 39 | 254 | 3.5 | 8.7 | 0.00 | 1.06 | 1.06 | 83 | 1004.5 |
| 20260504031648 | 39 | 305 | 3.5 | 8.7 | 0.00 | 1.06 | 1.06 | 83 | 1004.5 |
| 20260504031418 | 39 | 266 | 4.3 | 8.7 | 0.00 | 1.06 | 1.06 | 83 | 1004.5 |
| 20260504031313 | 39 | 259 | 3.5 | 7.8 | 0.00 | 1.06 | 1.06 | 83 | 1004.4 |
| 20260504030421 | 39 | 262 | 3.5 | 7.8 | 0.00 | 1.06 | 1.06 | 83 | 1004.3 |
| 20260504025918 | 39 | 317 | 4.3 | 10.4 | 0.00 | 1.06 | 1.06 | 84 | 1004.2 |
| 20260504025148 | 39 | 271 | 4.3 | 10.4 | 0.00 | 1.06 | 1.06 | 84 | 1004.1 |
| 20260504024648 | 40 | 290 | 4.3 | 10.4 | 0.00 | 1.06 | 1.06 | 84 | 1004.2 |
| 20260504024147 | 40 | 283 | 4.3 | 10.4 | 0.00 | 1.06 | 1.06 | 85 | 1004.2 |
| 20260504023648 | 40 | 296 | 4.3 | 11.3 | 0.00 | 1.06 | 1.06 | 85 | 1004.2 |
| 20260504023147 | 40 | 286 | 4.3 | 11.3 | 0.00 | 1.06 | 1.06 | 86 | 1004.1 |
| 20260504022647 | 40 | 299 | 5.2 | 11.3 | 0.00 | 1.06 | 1.06 | 87 | 1004.1 |
| 20260504022147 | 40 | 304 | 5.2 | 11.3 | 0.00 | 1.06 | 1.06 | 88 | 1004.0 |
| 20260504021647 | 40 | 278 | 4.3 | 11.3 | 0.00 | 1.06 | 1.06 | 89 | 1003.9 |
| 20260504021147 | 40 | 295 | 4.3 | 11.3 | 0.00 | 1.06 | 1.06 | 90 | 1003.9 |
| 20260504020646 | 40 | 286 | 3.5 | 9.6 | 0.00 | 1.06 | 1.06 | 90 | 1004.0 |
| 20260504020146 | 40 | 284 | 3.5 | 9.6 | 0.00 | 1.06 | 1.06 | 91 | 1003.8 |
| 20260504015647 | 41 | 274 | 3.5 | 9.6 | 0.00 | 1.06 | 1.06 | 91 | 1003.8 |
| 20260504015149 | 41 | 235 | 3.5 | 7.8 | 0.00 | 1.06 | 1.06 | 91 | 1003.7 |
| 20260504014648 | 41 | 271 | 3.5 | 7.8 | 0.00 | 1.06 | 1.06 | 91 | 1003.7 |
| 20260504014147 | 41 | 270 | 3.5 | 7.8 | 0.00 | 1.06 | 1.06 | 92 | 1003.6 |
| 20260504013647 | 41 | 263 | 2.6 | 7.0 | 0.00 | 1.06 | 1.06 | 92 | 1003.5 |
| 20260504013419 | 41 | 261 | 2.6 | 7.0 | 0.00 | 1.06 | 1.06 | 91 | 1003.5 |
| 20260504012648 | 42 | 282 | 2.6 | 7.0 | 0.00 | 1.06 | 1.06 | 91 | 1003.4 |